User: anonymous   Login
Location: Caltech
(34.1382°N, 118.1253°W)
Time: 18:46:03
(UTC-07:00)
Language:

ERBS - Orbit

View from above orbital plane
View from above orbital plane
View from above satellite
View from above satellite

Ground track
Ground track

The orbit data is extracted from the following two-line orbital elements,

1 15354U 84108B   17291.53517126  .00003005  00000-0  72394-4 0  9996
2 15354  57.0082 327.0300 0010772  11.5318 348.5982 15.44519906817259
Epoch (UTC): 18 October 2017 12:50:38
Eccentricity: 0.0010772
inclination: 57.0082°
perigee height: 425 km
apogee height: 440 km
right ascension of ascending node: 327.0300°
argument of perigee: 11.5318°
revolutions per day: 15.44519906
mean anomaly at epoch: 348.5982°
orbit number at epoch: 81725

The dashed part of the orbit path shows where the satellite is in the earth's shadow,  

DLR